Regional Weather Roundup
Issued by NWS

Home | Current Version | Previous Version | Text Only | Print | Product List | Glossary On
Versions: 1 2 3 4 5 6 7 8 9 10 11 12 13 14 15 16 17 18 19 20 21 22 23 24 25 26 27 28 29 30 31 32 33 34 35 36 37 38 39 40 41 42 43 44 45 46 47 48 49
000
ASUS42 KKEY 011210
RWRKEY

FLORIDA REGIONAL WEATHER ROUNDUP FOR THE FLORIDA KEYS
NATIONAL WEATHER SERVICE KEY WEST FLORIDA
800 AM EDT TUE SEP 01 2015

...SOUTH FLORIDA AND THE KEYS...

CITY           SKY/WX    TMP DP  RH WIND       PRES   REMARKS
FORT MYERS     SUNNY     76  75  97 SE5       30.06R
SW REGIONAL AP SUNNY     76  74  93 SE3       30.07R
NAPLES         SUNNY     78  75  90 CALM      30.07R
MIAMI          PTSUNNY   83  78  85 CALM      30.07R HX  93
WEST KENDALL   SUNNY     79  77  94 CALM        N/A
HOMESTEAD      SUNNY     81  76  86 NW2       30.06R
MARATHON       SUNNY     85  79  82 SE5       30.05R HX  98
BOCA CHICA NAS MOSUNNY   85  76  74 SE7       30.06R HX  94
KEY WEST INTL  MOSUNNY   85  77  77 SE7       30.06R HX  95

...INTERNATIONAL WEATHER...

CITY           SKY/WX    TMP DP  RH WIND       PRES   REMARKS
NASSAU BAHAMAS PTSUNNY   84  79  84 VRB2      30.08  HX  96
CANCUN MEXICO  MOCLDY    81  77  89 SE6       29.99R
COZUMEL MEXICO MOCLDY    75  75 100 CALM      29.98R

ADJACENT COASTAL WATERS...

STATION/POSITION TIME  SKY/WX   TEMP    WIND        PRES    WAVE
                                AIR SEA DIR/SP/G            HT/PER
                 (UTC)          (F)     (DEG/KT/KT) (MB)    (FT/S)
PULASKI SHOAL LI 1100                                 N/A
SAND KEY         1150            86     100/  9     1017.7R
SOMBRERO KEY     NOT AVBL
LONG KEY         1100            84 85  150/ 10/ 10 1017.9R
MOLASSES REEF    1200            84 86  130/ 10/ 11 1017.8R
FOWEY ROCKS      NOT AVBL

$$


USA.gov is the U.S. government's official web portal to all federal, state and local government web resources and services.